sat.trackr.live / text

‹ back to catalog

STARLINK-2457

NORAD 48321 · 2021-036AX

PAYLOAD ACTIVE UNKNOWN

§ Identity

Operator
Country
US
Launch date
2021-04-29
Launch site
AFETR
Launch vehicle
Mass (kg)
RCS (m²)

Purposes: comms

External: N2YO · Heavens-Above · Gunter

§ Orbital elements

Epoch: 2026-09-03T13:30:37.678176Z

Period
94.01 min
Inclination
53.1610°
Eccentricity
0.0000824
Mean motion
15.31709060 rev/d
Perigee alt
470.1 km
Apogee alt
471.3 km
Semi-major
6,848.8 km
B*
1.2964e-5
RAAN
353.3067°
Arg perigee
99.3430°
Mean anomaly
260.7665°
Rev number
29,529

§ Raw data

STARLINK-24571 48321U 21036AX  26246.56293609  .00000038  00000+0  12964-4 0  99962 48321  53.1610 353.3067 0000824  99.3430 260.7665 15.31709060295296

JSON: /api/v1/satellites/48321 · /tle

For live sub-satellite position, see the globe view (requires WebGL).

§ Visibility from observer

Set your observer location to see the next 7 days of passes ≥ 10°. The values pass through the URL so the page stays shareable.

No JS? Fill the form by hand. The geolocation button needs JavaScript.